Location: Bieg
(49.3499°N, 10.3835°E)
Time: 08:47:05
(UTC+00:00)

Cosmos 1346 Rocket - Pass Details

Date: 17 August 2024
Orbit: 503 x 516 km, 81.2° (Epoch: 10 September)

Event Time Altitude Azimuth Distance (km) Brightness Sun altitude
Exits shadow 23:52:34 12° 77° (ENE) 1,607 5.4 -27.3°
Drops below altitude 10° 23:53:32 10° 62° (ENE) 1,723 5.8 -27.3°
Sets 23:56:48 0° 31° (NNE) 2,617 7.3 -27.2°
